Time,TemperatureF,DewpointF,PressureIn,WindDirection,WindDirectionDegrees,WindSpeedMPH,WindSpeedGustMPH,Humidity,HourlyPrecipIn,Conditions,Clouds,dailyrainin,SoftwareType,DateUTC
2013-11-12 00:00:00,15.4,4.1,30.72,North,350,4.0,11.0,60,0.00,,SCT300,0.00,VWS V14.01,2013-11-12 06:00:00,
2013-11-12 00:01:00,16.2,4.4,30.72,NW,308,3.6,6.3,59,0.00,,CLR,0.00,VWS V14.01,2013-11-12 06:01:00,
2013-11-12 00:06:00,16.0,4.2,30.72,North,0,4.0,6.3,59,0.00,,CLR,0.00,VWS V14.01,2013-11-12 06:06:00,
2013-11-12 00:12:00,16.0,4.6,30.72,NNW,339,3.6,6.3,60,0.00,,CLR,0.00,VWS V14.01,2013-11-12 06:12:00,
2013-11-12 00:15:00,15.3,4.2,30.72,North,353,2.7,5.4,61,0.00,,SCT300,0.00,VWS V14.01,2013-11-12 06:15:00,
2013-11-12 00:17:00,16.0,4.2,30.72,North,1,3.6,5.4,59,0.00,,CLR,0.00,VWS V14.01,2013-11-12 06:17:00,
2013-11-12 00:22:00,15.8,4.4,30.72,North,353,3.1,8.3,60,0.00,,CLR,0.00,VWS V14.01,2013-11-12 06:22:00,
2013-11-12 00:27:00,15.8,4.4,30.72,NNW,344,3.6,8.3,60,0.00,,CLR,0.00,VWS V14.01,2013-11-12 06:27:00,
2013-11-12 00:30:00,15.3,4.6,30.72,NNW,327,0.0,7.2,62,0.00,,SCT300,0.00,VWS V14.01,2013-11-12 06:30:00,
2013-11-12 00:32:00,15.8,4.0,30.72,NNW,346,4.9,7.6,59,0.00,,CLR,0.00,VWS V14.01,2013-11-12 06:32:00,
2013-11-12 00:37:00,15.8,4.0,30.72,NNW,329,4.9,8.7,59,0.00,,CLR,0.00,VWS V14.01,2013-11-12 06:37:00,
2013-11-12 00:42:00,15.6,4.2,30.72,NW,323,3.1,8.7,60,0.00,,CLR,0.00,VWS V14.01,2013-11-12 06:42:00,
2013-11-12 00:45:00,15.1,4.4,30.72,North,353,0.0,4.0,62,0.00,,SCT300,0.00,VWS V14.01,2013-11-12 06:45:00,
2013-11-12 00:47:00,15.4,4.1,30.72,North,357,6.3,10.1,60,0.00,,CLR,0.00,VWS V14.01,2013-11-12 06:47:00,
2013-11-12 00:52:00,15.4,4.1,30.72,NW,326,5.8,11.0,60,0.00,,CLR,0.00,VWS V14.01,2013-11-12 06:52:00,
2013-11-12 00:57:00,15.4,4.1,30.72,NNW,345,2.7,11.0,60,0.00,,CLR,0.00,VWS V14.01,2013-11-12 06:57:00,
2013-11-12 01:00:00,14.9,4.6,30.72,NW,325,0.0,0.0,63,0.00,,SCT300,0.00,VWS V14.01,2013-11-12 07:00:00,
2013-11-12 01:02:00,15.4,4.1,30.72,NW,311,3.1,4.0,60,0.00,,FEW150,0.00,VWS V14.01,2013-11-12 07:02:00,
2013-11-12 01:07:00,15.4,4.1,30.72,NNW,342,4.0,5.4,60,0.00,,FEW150,0.00,VWS V14.01,2013-11-12 07:07:00,
2013-11-12 01:12:00,15.4,4.4,30.72,NW,323,5.4,5.4,61,0.00,,FEW150,0.00,VWS V14.01,2013-11-12 07:12:00,
2013-11-12 01:15:00,14.9,4.6,30.72,NNW,331,0.0,0.0,63,0.00,,SCT300,0.00,VWS V14.01,2013-11-12 07:15:00,
2013-11-12 01:17:00,15.3,4.2,30.72,NNW,341,2.7,5.8,61,0.00,,FEW150,0.00,VWS V14.01,2013-11-12 07:17:00,
2013-11-12 01:22:00,15.3,4.2,30.72,NNW,329,0.0,7.2,61,0.00,,FEW150,0.00,VWS V14.01,2013-11-12 07:22:00,
2013-11-12 01:27:00,15.3,4.2,30.72,NW,305,0.0,7.2,61,0.00,,FEW150,0.00,VWS V14.01,2013-11-12 07:27:00,
2013-11-12 01:30:00,14.9,4.9,30.72,NW,305,0.0,3.6,64,0.00,,SCT300,0.00,VWS V14.01,2013-11-12 07:30:00,
2013-11-12 01:32:00,15.3,4.6,30.72,NNW,331,3.1,4.0,62,0.00,,FEW150,0.00,VWS V14.01,2013-11-12 07:32:00,
2013-11-12 01:37:00,15.3,4.6,30.72,NW,319,0.0,4.0,62,0.00,,FEW150,0.00,VWS V14.01,2013-11-12 07:37:00,
2013-11-12 01:42:00,15.1,4.4,30.72,North,353,0.0,4.0,62,0.00,,FEW150,0.00,VWS V14.01,2013-11-12 07:42:00,
2013-11-12 01:45:00,14.9,4.9,30.75,West,275,0.0,5.4,64,0.00,,SCT300,0.00,VWS V14.01,2013-11-12 07:45:00,
2013-11-12 01:47:00,15.1,4.4,30.72,North,353,0.0,0.0,62,0.00,,FEW150,0.00,VWS V14.01,2013-11-12 07:47:00,
2013-11-12 01:52:00,15.1,4.4,30.72,North,353,0.0,0.0,62,0.00,,FEW150,0.00,VWS V14.01,2013-11-12 07:52:00,
2013-11-12 01:57:00,15.1,4.8,30.72,NW,325,0.0,0.0,63,0.00,,FEW150,0.00,VWS V14.01,2013-11-12 07:57:00,
2013-11-12 02:00:00,14.7,4.8,30.72,WNW,283,0.0,6.3,64,0.00,,SCT300,0.00,VWS V14.01,2013-11-12 08:00:00,
2013-11-12 02:02:00,14.9,4.6,30.72,North,350,0.0,0.0,63,0.00,,FEW150,0.00,VWS V14.01,2013-11-12 08:02:00,
2013-11-12 02:07:00,14.9,4.6,30.72,NNW,332,0.0,0.0,63,0.00,,FEW150,0.00,VWS V14.01,2013-11-12 08:07:00,
2013-11-12 02:12:00,14.9,4.6,30.72,NNW,332,0.0,0.0,63,0.00,,FEW150,0.00,VWS V14.01,2013-11-12 08:12:00,
2013-11-12 02:15:00,14.5,4.9,30.75,NW,319,3.1,4.0,65,0.00,,SCT300,0.00,VWS V14.01,2013-11-12 08:15:00,
2013-11-12 02:17:00,14.9,4.6,30.72,NNW,332,0.0,0.0,63,0.00,,FEW150,0.00,VWS V14.01,2013-11-12 08:17:00,
2013-11-12 02:22:00,14.9,4.9,30.72,West,263,3.1,3.1,64,0.00,,FEW150,0.00,VWS V14.01,2013-11-12 08:22:00,
2013-11-12 02:27:00,14.9,4.9,30.72,WNW,290,0.0,3.6,64,0.00,,FEW150,0.00,VWS V14.01,2013-11-12 08:27:00,
2013-11-12 02:30:00,14.5,4.9,30.75,NW,322,5.4,5.8,65,0.00,,SCT300,0.00,VWS V14.01,2013-11-12 08:30:00,
2013-11-12 02:32:00,14.9,4.9,30.75,NW,313,0.0,0.0,64,0.00,,FEW150,0.00,VWS V14.01,2013-11-12 08:32:00,
2013-11-12 02:37:00,14.9,4.9,30.75,WNW,288,0.0,2.7,64,0.00,,FEW150,0.00,VWS V14.01,2013-11-12 08:37:00,
2013-11-12 02:42:00,14.9,4.9,30.75,WNW,288,4.0,4.0,64,0.00,,FEW150,0.00,VWS V14.01,2013-11-12 08:42:00,
2013-11-12 02:45:00,14.4,4.4,30.75,NW,312,3.1,7.6,64,0.00,,SCT300,0.00,VWS V14.01,2013-11-12 08:45:00,
2013-11-12 02:47:00,14.9,4.9,30.72,WNW,292,2.7,6.3,64,0.00,,FEW150,0.00,VWS V14.01,2013-11-12 08:47:00,
2013-11-12 02:52:00,14.9,4.9,30.72,West,277,2.7,6.3,64,0.00,,FEW150,0.00,VWS V14.01,2013-11-12 08:52:00,
2013-11-12 02:57:00,14.7,4.8,30.72,WNW,283,0.0,6.3,64,0.00,,FEW150,0.00,VWS V14.01,2013-11-12 08:57:00,
2013-11-12 03:00:00,14.2,4.2,30.75,NNW,338,2.7,5.4,64,0.00,,SCT300,0.00,VWS V14.01,2013-11-12 09:00:00,
2013-11-12 03:02:00,14.7,4.8,30.75,WNW,283,0.0,0.0,64,0.00,,FEW150,0.00,VWS V14.01,2013-11-12 09:02:00,
2013-11-12 03:07:00,14.5,4.6,30.75,WNW,286,0.0,0.0,64,0.00,,FEW150,0.00,VWS V14.01,2013-11-12 09:07:00,
2013-11-12 03:12:00,14.5,4.6,30.75,NNW,337,2.2,4.0,64,0.00,,FEW150,0.00,VWS V14.01,2013-11-12 09:12:00,
2013-11-12 03:15:00,14.2,4.2,30.75,NNW,343,4.0,6.3,64,0.00,,SCT300,0.00,VWS V14.01,2013-11-12 09:15:00,
2013-11-12 03:17:00,14.5,4.9,30.75,NNW,345,3.1,4.0,65,0.00,,FEW150,0.00,VWS V14.01,2013-11-12 09:17:00,
2013-11-12 03:21:00,14.5,4.9,30.75,NW,313,0.0,5.8,65,0.00,,FEW150,0.00,VWS V14.01,2013-11-12 09:21:00,
2013-11-12 03:26:00,14.5,4.9,30.75,NW,325,2.7,5.8,65,0.00,,FEW150,0.00,VWS V14.01,2013-11-12 09:26:00,
2013-11-12 03:30:00,14.0,4.1,30.75,NNW,332,3.6,9.2,64,0.00,,SCT300,0.00,VWS V14.01,2013-11-12 09:30:00,
2013-11-12 03:31:00,14.5,4.6,30.75,NW,312,2.7,7.6,64,0.00,,FEW150,0.00,VWS V14.01,2013-11-12 09:31:00,
2013-11-12 03:36:00,14.5,4.6,30.75,North,349,3.1,7.6,64,0.00,,FEW150,0.00,VWS V14.01,2013-11-12 09:36:00,
2013-11-12 03:41:00,14.4,4.4,30.75,North,353,3.1,7.6,64,0.00,,FEW150,0.00,VWS V14.01,2013-11-12 09:41:00,
2013-11-12 03:45:00,13.8,3.9,30.75,North,0,3.6,10.5,64,0.00,,SCT300,0.00,VWS V14.01,2013-11-12 09:45:00,
2013-11-12 03:46:00,14.4,4.4,30.75,NW,317,2.7,3.1,64,0.00,,FEW150,0.00,VWS V14.01,2013-11-12 09:46:00,
2013-11-12 03:51:00,14.4,4.4,30.75,NNW,348,5.4,5.4,64,0.00,,FEW150,0.00,VWS V14.01,2013-11-12 09:51:00,
2013-11-12 03:56:00,14.4,4.4,30.75,North,353,3.1,5.4,64,0.00,,FEW150,0.00,VWS V14.01,2013-11-12 09:56:00,
2013-11-12 04:00:00,13.8,3.9,30.75,North,350,0.0,8.1,64,0.00,,SCT300,0.00,VWS V14.01,2013-11-12 10:00:00,
2013-11-12 04:01:00,14.2,4.2,30.75,NNW,327,3.1,3.6,64,0.00,,SCT150,0.00,VWS V14.01,2013-11-12 10:01:00,
2013-11-12 04:06:00,14.2,4.2,30.75,NW,319,3.1,6.3,64,0.00,,SCT150,0.00,VWS V14.01,2013-11-12 10:06:00,
2013-11-12 04:11:00,14.2,4.2,30.75,NNW,341,6.3,6.3,64,0.00,,SCT150,0.00,VWS V14.01,2013-11-12 10:11:00,
2013-11-12 04:15:00,13.8,3.9,30.75,NNW,329,3.1,5.4,64,0.00,,SCT300,0.00,VWS V14.01,2013-11-12 10:15:00,
2013-11-12 04:16:00,14.2,4.2,30.75,NNW,342,4.0,5.8,64,0.00,,SCT150,0.00,VWS V14.01,2013-11-12 10:16:00,
2013-11-12 04:21:00,14.2,3.9,30.75,NNW,335,5.4,5.8,63,0.00,,SCT150,0.00,VWS V14.01,2013-11-12 10:21:00,
2013-11-12 04:26:00,14.0,4.1,30.75,NNW,345,5.4,7.6,64,0.00,,SCT150,0.00,VWS V14.01,2013-11-12 10:26:00,
2013-11-12 04:30:00,13.6,3.7,30.75,NNW,341,2.2,7.6,64,0.00,,SCT300,0.00,VWS V14.01,2013-11-12 10:30:00,
2013-11-12 04:31:00,14.0,4.1,30.75,NNW,343,5.8,5.8,64,0.00,,SCT150,0.00,VWS V14.01,2013-11-12 10:31:00,
2013-11-12 04:36:00,13.8,3.9,30.75,NW,316,4.0,7.6,64,0.00,,SCT150,0.00,VWS V14.01,2013-11-12 10:36:00,
2013-11-12 04:41:00,13.8,3.9,30.75,NW,309,8.1,8.1,64,0.00,,SCT150,0.00,VWS V14.01,2013-11-12 10:41:00,
2013-11-12 04:45:00,13.6,3.7,30.75,NW,326,0.0,4.0,64,0.00,,SCT300,0.00,VWS V14.01,2013-11-12 10:45:00,
2013-11-12 04:46:00,13.8,3.9,30.75,North,349,4.9,5.4,64,0.00,,SCT150,0.00,VWS V14.01,2013-11-12 10:46:00,
2013-11-12 04:51:00,13.8,3.9,30.75,NNW,327,3.1,8.1,64,0.00,,SCT150,0.00,VWS V14.01,2013-11-12 10:51:00,
2013-11-12 04:56:00,13.8,3.9,30.75,North,0,3.1,8.1,64,0.00,,SCT150,0.00,VWS V14.01,2013-11-12 10:56:00,
2013-11-12 05:00:00,13.6,3.7,30.75,NW,322,3.6,8.1,64,0.00,,SCT300,0.00,VWS V14.01,2013-11-12 11:00:00,
2013-11-12 05:01:00,13.8,3.9,30.75,NNW,329,2.2,3.1,64,0.00,,CLR,0.00,VWS V14.01,2013-11-12 11:01:00,
2013-11-12 05:06:00,13.8,3.9,30.75,North,350,3.6,5.4,64,0.00,,CLR,0.00,VWS V14.01,2013-11-12 11:06:00,
2013-11-12 05:11:00,13.8,3.9,30.75,NNW,346,2.7,5.4,64,0.00,,CLR,0.00,VWS V14.01,2013-11-12 11:11:00,
2013-11-12 05:15:00,13.6,3.7,30.75,NW,324,0.0,5.4,64,0.00,,SCT300,0.00,VWS V14.01,2013-11-12 11:15:00,
2013-11-12 05:16:00,13.8,3.9,30.75,NW,317,3.1,4.0,64,0.00,,CLR,0.00,VWS V14.01,2013-11-12 11:16:00,
2013-11-12 05:21:00,13.8,3.9,30.75,NW,323,3.1,4.9,64,0.00,,CLR,0.00,VWS V14.01,2013-11-12 11:21:00,
2013-11-12 05:26:00,13.6,3.7,30.75,North,353,5.4,7.6,64,0.00,,CLR,0.00,VWS V14.01,2013-11-12 11:26:00,
2013-11-12 05:30:00,13.5,3.6,30.75,WNW,300,3.1,4.0,64,0.00,,SCT300,0.00,VWS V14.01,2013-11-12 11:30:00,
2013-11-12 05:31:00,13.6,3.7,30.75,NNW,342,0.0,2.2,64,0.00,,CLR,0.00,VWS V14.01,2013-11-12 11:31:00,
2013-11-12 05:36:00,13.6,3.7,30.75,North,3,2.7,3.6,64,0.00,,CLR,0.00,VWS V14.01,2013-11-12 11:36:00,
2013-11-12 05:41:00,13.6,3.7,30.75,North,2,0.0,3.6,64,0.00,,CLR,0.00,VWS V14.01,2013-11-12 11:41:00,
2013-11-12 05:45:00,13.1,3.2,30.75,West,269,0.0,5.8,64,0.00,,SCT300,0.00,VWS V14.01,2013-11-12 11:45:00,
2013-11-12 05:46:00,13.6,3.7,30.75,NW,324,2.2,2.7,64,0.00,,CLR,0.00,VWS V14.01,2013-11-12 11:46:00,
2013-11-12 05:51:00,13.6,3.7,30.75,NW,311,0.0,4.0,64,0.00,,CLR,0.00,VWS V14.01,2013-11-12 11:51:00,
2013-11-12 05:56:00,13.6,3.7,30.75,WNW,290,2.7,4.0,64,0.00,,CLR,0.00,VWS V14.01,2013-11-12 11:56:00,
2013-11-12 06:00:00,13.3,3.4,30.78,West,266,0.0,3.6,64,0.00,,SCT300,0.00,VWS V14.01,2013-11-12 12:00:00,
2013-11-12 06:01:00,13.6,3.7,30.75,North,353,5.4,5.4,64,0.00,,CLR,0.00,VWS V14.01,2013-11-12 12:01:00,
2013-11-12 06:06:00,13.6,3.7,30.75,NNW,335,2.7,5.4,64,0.00,,CLR,0.00,VWS V14.01,2013-11-12 12:06:00,
2013-11-12 06:11:00,13.6,3.7,30.75,NW,324,0.0,5.4,64,0.00,,CLR,0.00,VWS V14.01,2013-11-12 12:11:00,
2013-11-12 06:15:00,13.5,3.6,30.75,West,276,0.0,6.3,64,0.00,,SCT300,0.00,VWS V14.01,2013-11-12 12:15:00,
2013-11-12 06:16:00,13.6,3.7,30.75,West,279,0.0,0.0,64,0.00,,CLR,0.00,VWS V14.01,2013-11-12 12:16:00,
2013-11-12 06:21:00,13.6,3.7,30.75,WNW,293,2.7,4.0,64,0.00,,CLR,0.00,VWS V14.01,2013-11-12 12:21:00,
2013-11-12 06:26:00,13.5,3.6,30.75,NW,306,2.2,4.0,64,0.00,,CLR,0.00,VWS V14.01,2013-11-12 12:26:00,
2013-11-12 06:30:00,13.8,3.9,30.75,WNW,301,3.6,6.3,64,0.00,,SCT300,0.00,VWS V14.01,2013-11-12 12:30:00,
2013-11-12 06:31:00,13.5,3.6,30.75,West,275,5.4,5.4,64,0.00,,CLR,0.00,VWS V14.01,2013-11-12 12:31:00,
2013-11-12 06:36:00,13.3,3.4,30.75,West,275,2.7,5.4,64,0.00,,CLR,0.00,VWS V14.01,2013-11-12 12:36:00,
2013-11-12 06:41:00,13.3,3.4,30.75,West,275,0.0,5.8,64,0.00,,CLR,0.00,VWS V14.01,2013-11-12 12:41:00,
2013-11-12 06:45:00,14.2,4.6,30.75,NW,310,4.0,6.3,65,0.00,,SCT300,0.00,VWS V14.01,2013-11-12 12:45:00,
2013-11-12 06:46:00,13.1,3.2,30.75,West,270,0.0,0.0,64,0.00,,CLR,0.00,VWS V14.01,2013-11-12 12:46:00,
2013-11-12 06:51:00,13.1,3.2,30.78,WNW,294,0.0,3.1,64,0.00,,CLR,0.00,VWS V14.01,2013-11-12 12:51:00,
2013-11-12 06:56:00,13.1,3.2,30.78,West,267,2.2,3.6,64,0.00,,CLR,0.00,VWS V14.01,2013-11-12 12:56:00,
2013-11-12 07:00:00,14.5,4.6,30.75,WNW,296,3.1,5.8,64,0.00,,SCT300,0.00,VWS V14.01,2013-11-12 13:00:00,
2013-11-12 07:01:00,13.3,3.4,30.78,West,267,0.0,0.0,64,0.00,,CLR,0.00,VWS V14.01,2013-11-12 13:01:00,
2013-11-12 07:06:00,13.3,3.4,30.75,NW,311,3.6,4.0,64,0.00,,CLR,0.00,VWS V14.01,2013-11-12 13:06:00,
2013-11-12 07:11:00,13.5,3.6,30.75,WNW,287,2.7,6.3,64,0.00,,CLR,0.00,VWS V14.01,2013-11-12 13:11:00,
2013-11-12 07:15:00,14.5,4.2,30.75,WNW,294,2.7,7.2,63,0.00,,SCT300,0.00,VWS V14.01,2013-11-12 13:15:00,
2013-11-12 07:16:00,13.5,3.6,30.75,NW,308,3.1,6.3,64,0.00,,CLR,0.00,VWS V14.01,2013-11-12 13:16:00,
2013-11-12 07:21:00,13.6,3.7,30.75,NNW,342,0.0,6.3,64,0.00,,CLR,0.00,VWS V14.01,2013-11-12 13:21:00,
2013-11-12 07:26:00,13.8,3.9,30.75,WNW,299,2.7,6.3,64,0.00,,CLR,0.00,VWS V14.01,2013-11-12 13:26:00,
2013-11-12 07:30:00,15.3,4.2,30.75,WNW,286,3.6,6.3,61,0.00,,SCT300,0.00,VWS V14.01,2013-11-12 13:30:00,
2013-11-12 07:31:00,13.8,3.9,30.75,WSW,240,4.9,6.3,64,0.00,,CLR,0.00,VWS V14.01,2013-11-12 13:31:00,
2013-11-12 07:36:00,14.0,4.4,30.75,WNW,295,4.9,6.3,65,0.00,,CLR,0.00,VWS V14.01,2013-11-12 13:36:00,
2013-11-12 07:41:00,14.2,4.6,30.75,West,277,3.6,6.3,65,0.00,,CLR,0.00,VWS V14.01,2013-11-12 13:41:00,
2013-11-12 07:45:00,15.4,3.7,30.75,WNW,288,3.6,7.2,59,0.00,,SCT300,0.00,VWS V14.01,2013-11-12 13:45:00,
2013-11-12 07:46:00,14.2,4.6,30.75,West,281,3.1,4.0,65,0.00,,CLR,0.00,VWS V14.01,2013-11-12 13:46:00,
2013-11-12 07:51:00,14.4,4.8,30.75,NW,309,3.6,5.4,65,0.00,,CLR,0.00,VWS V14.01,2013-11-12 13:51:00,
2013-11-12 07:56:00,14.5,4.9,30.75,West,274,5.8,5.8,65,0.00,,CLR,0.00,VWS V14.01,2013-11-12 13:56:00,
2013-11-12 08:00:00,15.6,3.9,30.75,West,275,5.4,7.2,59,0.00,,SCT300,0.00,VWS V14.01,2013-11-12 14:00:00,
2013-11-12 08:01:00,14.5,4.6,30.75,NW,321,4.9,4.9,64,0.00,,SCT130,0.00,VWS V14.01,2013-11-12 14:01:00,
2013-11-12 08:06:00,14.4,4.1,30.75,NW,323,5.8,7.2,63,0.00,,SCT130,0.00,VWS V14.01,2013-11-12 14:06:00,
2013-11-12 08:11:00,14.5,4.2,30.75,West,279,4.0,7.2,63,0.00,,SCT130,0.00,VWS V14.01,2013-11-12 14:11:00,
2013-11-12 08:15:00,16.2,3.6,30.75,WNW,286,7.6,8.3,57,0.00,,SCT300,0.00,VWS V14.01,2013-11-12 14:15:00,
2013-11-12 08:16:00,14.7,4.1,30.75,West,273,4.0,4.9,62,0.00,,SCT130,0.00,VWS V14.01,2013-11-12 14:16:00,
2013-11-12 08:21:00,14.9,4.2,30.75,WNW,282,2.7,4.9,62,0.00,,SCT130,0.00,VWS V14.01,2013-11-12 14:21:00,
2013-11-12 08:26:00,15.1,4.4,30.75,NW,321,3.1,6.3,62,0.00,,SCT130,0.00,VWS V14.01,2013-11-12 14:26:00,
2013-11-12 08:30:00,17.1,4.5,30.78,SSW,213,3.6,8.3,57,0.00,,SCT300,0.00,VWS V14.01,2013-11-12 14:30:00,
2013-11-12 08:31:00,15.3,4.2,30.75,WNW,292,2.7,3.6,61,0.00,,SCT130,0.00,VWS V14.01,2013-11-12 14:31:00,
2013-11-12 08:36:00,15.3,3.9,30.75,WNW,295,0.0,5.4,60,0.00,,SCT130,0.00,VWS V14.01,2013-11-12 14:36:00,
2013-11-12 08:41:00,15.4,4.1,30.75,WNW,282,2.7,6.3,60,0.00,,SCT130,0.00,VWS V14.01,2013-11-12 14:41:00,
2013-11-12 08:45:00,17.6,4.6,30.75,NW,323,0.0,8.7,56,0.00,,SCT300,0.00,VWS V14.01,2013-11-12 14:45:00,
2013-11-12 08:46:00,15.4,3.7,30.75,WSW,254,3.1,5.8,59,0.00,,SCT130,0.00,VWS V14.01,2013-11-12 14:46:00,
2013-11-12 08:51:00,15.4,3.7,30.75,West,273,7.2,7.2,59,0.00,,SCT130,0.00,VWS V14.01,2013-11-12 14:51:00,
2013-11-12 08:56:00,15.4,3.7,30.75,West,268,5.4,7.2,59,0.00,,SCT130,0.00,VWS V14.01,2013-11-12 14:56:00,
2013-11-12 09:00:00,18.3,4.9,30.78,West,272,3.6,7.6,55,0.00,,SCT300,0.00,VWS V14.01,2013-11-12 15:00:00,
2013-11-12 09:01:00,15.6,3.8,30.75,SW,223,5.8,6.3,59,0.00,,BKN170,0.00,VWS V14.01,2013-11-12 15:01:00,
2013-11-12 09:06:00,15.8,3.7,30.75,WNW,293,5.8,8.3,58,0.00,,BKN170,0.00,VWS V14.01,2013-11-12 15:06:00,
2013-11-12 09:11:00,16.0,3.8,30.75,WNW,282,0.0,8.3,58,0.00,,BKN170,0.00,VWS V14.01,2013-11-12 15:11:00,
2013-11-12 09:15:00,19.2,5.3,30.75,West,280,3.1,8.1,54,0.00,,SCT300,0.00,VWS V14.01,2013-11-12 15:15:00,
2013-11-12 09:16:00,16.3,3.8,30.75,West,279,6.3,7.6,57,0.00,,BKN170,0.00,VWS V14.01,2013-11-12 15:16:00,
2013-11-12 09:21:00,16.5,4.0,30.78,NW,325,3.6,8.3,57,0.00,,BKN170,0.00,VWS V14.01,2013-11-12 15:21:00,
2013-11-12 09:26:00,16.9,4.3,30.78,West,260,4.9,8.3,57,0.00,,BKN170,0.00,VWS V14.01,2013-11-12 15:26:00,
2013-11-12 09:30:00,20.1,5.7,30.75,West,266,3.6,6.3,53,0.00,,SCT300,0.00,VWS V14.01,2013-11-12 15:30:00,
2013-11-12 09:31:00,17.1,4.5,30.78,West,262,3.1,5.8,57,0.00,,BKN170,0.00,VWS V14.01,2013-11-12 15:31:00,
2013-11-12 09:36:00,17.4,4.8,30.75,West,267,0.0,7.6,57,0.00,,BKN170,0.00,VWS V14.01,2013-11-12 15:36:00,
2013-11-12 09:41:00,17.6,5.0,30.75,West,277,4.0,8.7,57,0.00,,BKN170,0.00,VWS V14.01,2013-11-12 15:41:00,
2013-11-12 09:45:00,20.7,5.8,30.75,SW,226,2.7,8.7,52,0.00,,SCT300,0.00,VWS V14.01,2013-11-12 15:45:00,
2013-11-12 09:46:00,17.8,4.8,30.75,WNW,285,2.2,6.3,56,0.00,,BKN170,0.00,VWS V14.01,2013-11-12 15:46:00,
2013-11-12 09:51:00,18.1,5.1,30.78,WNW,301,5.4,7.6,56,0.00,,BKN170,0.00,VWS V14.01,2013-11-12 15:51:00,
2013-11-12 09:56:00,18.3,4.9,30.78,NW,322,4.0,7.6,55,0.00,,BKN170,0.00,VWS V14.01,2013-11-12 15:56:00,
2013-11-12 10:00:00,21.6,5.8,30.75,West,269,7.6,8.3,50,0.00,,SCT300,0.00,VWS V14.01,2013-11-12 16:00:00,
2013-11-12 10:01:00,18.5,5.0,30.78,WNW,289,5.8,5.8,55,0.00,,SCT170,0.00,VWS V14.01,2013-11-12 16:01:00,
2013-11-12 10:06:00,18.9,5.4,30.75,WSW,254,4.0,8.1,55,0.00,,SCT170,0.00,VWS V14.01,2013-11-12 16:06:00,
2013-11-12 10:11:00,19.2,5.7,30.75,NW,312,2.7,8.1,55,0.00,,SCT170,0.00,VWS V14.01,2013-11-12 16:11:00,
2013-11-12 10:15:00,22.8,6.1,30.75,WNW,282,2.7,8.1,48,0.00,,SCT300,0.00,VWS V14.01,2013-11-12 16:15:00,
2013-11-12 10:16:00,19.4,5.5,30.75,NW,308,4.0,6.3,54,0.00,,SCT170,0.00,VWS V14.01,2013-11-12 16:16:00,
2013-11-12 10:21:00,19.6,5.7,30.75,NW,326,3.1,6.3,54,0.00,,SCT170,0.00,VWS V14.01,2013-11-12 16:21:00,
2013-11-12 10:26:00,19.8,5.4,30.75,West,274,2.7,6.3,53,0.00,,SCT170,0.00,VWS V14.01,2013-11-12 16:26:00,
2013-11-12 10:30:00,23.7,6.4,30.75,WSW,249,7.6,10.1,47,0.00,,SCT300,0.00,VWS V14.01,2013-11-12 16:30:00,
2013-11-12 10:31:00,20.3,5.9,30.75,WSW,248,5.4,5.4,53,0.00,,SCT170,0.00,VWS V14.01,2013-11-12 16:31:00,
2013-11-12 10:36:00,20.5,6.1,30.75,West,276,3.1,8.7,53,0.00,,SCT170,0.00,VWS V14.01,2013-11-12 16:36:00,
2013-11-12 10:41:00,20.7,5.8,30.75,NW,308,4.0,8.7,52,0.00,,SCT170,0.00,VWS V14.01,2013-11-12 16:41:00,
2013-11-12 10:45:00,24.6,6.8,30.72,SW,226,4.0,8.1,46,0.00,,SCT300,0.00,VWS V14.01,2013-11-12 16:45:00,
2013-11-12 10:46:00,20.8,6.0,30.75,WNW,283,2.7,4.0,52,0.00,,SCT170,0.00,VWS V14.01,2013-11-12 16:46:00,
2013-11-12 10:51:00,21.2,5.9,30.75,West,263,2.7,6.3,51,0.00,,SCT170,0.00,VWS V14.01,2013-11-12 16:51:00,
2013-11-12 10:56:00,21.4,5.6,30.75,West,265,3.6,7.6,50,0.00,,SCT170,0.00,VWS V14.01,2013-11-12 16:56:00,
2013-11-12 11:00:00,25.2,6.3,30.72,WNW,293,3.6,8.1,44,0.00,,SCT300,0.00,VWS V14.01,2013-11-12 17:00:00,
2013-11-12 11:01:00,21.7,5.5,30.75,SW,223,2.7,7.6,49,0.00,,FEW170,0.00,VWS V14.01,2013-11-12 17:01:00,
2013-11-12 11:06:00,22.3,6.0,30.75,WNW,282,5.8,7.6,49,0.00,,FEW170,0.00,VWS V14.01,2013-11-12 17:06:00,
2013-11-12 11:11:00,22.8,6.1,30.75,SW,217,2.7,7.6,48,0.00,,FEW170,0.00,VWS V14.01,2013-11-12 17:11:00,
2013-11-12 11:15:00,25.0,6.2,30.72,WNW,282,4.9,8.3,44,0.00,,SCT300,0.00,VWS V14.01,2013-11-12 17:15:00,
2013-11-12 11:16:00,22.8,5.6,30.75,WNW,288,3.1,6.3,47,0.00,,FEW170,0.00,VWS V14.01,2013-11-12 17:16:00,
2013-11-12 11:21:00,23.0,5.8,30.75,West,272,3.6,10.1,47,0.00,,FEW170,0.00,VWS V14.01,2013-11-12 17:21:00,
2013-11-12 11:26:00,23.2,5.5,30.75,WNW,300,2.7,10.1,46,0.00,,FEW170,0.00,VWS V14.01,2013-11-12 17:26:00,
2013-11-12 11:30:00,26.1,6.6,30.72,NW,312,2.7,8.3,43,0.00,,SCT300,0.00,VWS V14.01,2013-11-12 17:30:00,
2013-11-12 11:31:00,23.7,6.4,30.75,WSW,249,3.1,7.6,47,0.00,,FEW170,0.00,VWS V14.01,2013-11-12 17:31:00,
2013-11-12 11:36:00,23.9,6.1,30.72,WSW,258,0.0,8.1,46,0.00,,FEW170,0.00,VWS V14.01,2013-11-12 17:36:00,
2013-11-12 11:41:00,24.3,6.0,30.72,West,270,3.1,8.1,45,0.00,,FEW170,0.00,VWS V14.01,2013-11-12 17:41:00,
2013-11-12 11:45:00,27.3,7.8,30.72,SSW,206,2.2,7.6,43,0.00,,SCT300,0.00,VWS V14.01,2013-11-12 17:45:00,
2013-11-12 11:46:00,24.8,7.0,30.72,SW,217,4.0,7.6,46,0.00,,FEW170,0.00,VWS V14.01,2013-11-12 17:46:00,
2013-11-12 11:51:00,25.2,6.8,30.72,SW,232,2.7,7.6,45,0.00,,FEW170,0.00,VWS V14.01,2013-11-12 17:51:00,
2013-11-12 11:56:00,25.3,6.5,30.72,WNW,284,3.6,8.1,44,0.00,,FEW170,0.00,VWS V14.01,2013-11-12 17:56:00,
2013-11-12 12:00:00,27.9,8.3,30.69,SW,217,2.7,7.6,43,0.00,,SCT300,0.00,VWS V14.01,2013-11-12 18:00:00,
2013-11-12 12:01:00,25.0,6.2,30.72,West,261,4.0,5.8,44,0.00,,CLR,0.00,VWS V14.01,2013-11-12 18:01:00,
2013-11-12 12:06:00,25.2,6.3,30.72,NW,314,6.3,7.6,44,0.00,,CLR,0.00,VWS V14.01,2013-11-12 18:06:00,
2013-11-12 12:11:00,25.0,6.2,30.72,NW,320,4.0,8.3,44,0.00,,CLR,0.00,VWS V14.01,2013-11-12 18:11:00,
2013-11-12 12:15:00,27.9,8.3,30.69,SW,229,2.7,9.2,43,0.00,,SCT300,0.00,VWS V14.01,2013-11-12 18:15:00,
2013-11-12 12:16:00,25.2,6.3,30.72,NW,314,3.6,6.3,44,0.00,,CLR,0.00,VWS V14.01,2013-11-12 18:16:00,
2013-11-12 12:21:00,25.7,6.3,30.72,West,270,5.8,7.6,43,0.00,,CLR,0.00,VWS V14.01,2013-11-12 18:21:00,
2013-11-12 12:26:00,25.9,6.5,30.72,NNW,337,4.9,8.3,43,0.00,,CLR,0.00,VWS V14.01,2013-11-12 18:26:00,
2013-11-12 12:30:00,27.7,8.1,30.69,SSW,196,0.0,7.6,43,0.00,,SCT300,0.00,VWS V14.01,2013-11-12 18:30:00,
2013-11-12 12:31:00,26.1,6.6,30.72,WNW,290,3.1,4.0,43,0.00,,CLR,0.00,VWS V14.01,2013-11-12 18:31:00,
2013-11-12 12:36:00,26.2,6.8,30.72,WSW,253,2.7,6.3,43,0.00,,CLR,0.00,VWS V14.01,2013-11-12 18:36:00,
2013-11-12 12:41:00,27.0,7.5,30.72,South,180,2.2,6.3,43,0.00,,CLR,0.00,VWS V14.01,2013-11-12 18:41:00,
2013-11-12 12:45:00,27.7,8.1,30.66,SW,214,6.3,8.3,43,0.00,,SCT300,0.00,VWS V14.01,2013-11-12 18:45:00,
2013-11-12 12:46:00,27.3,7.8,30.72,WSW,248,4.9,7.2,43,0.00,,CLR,0.00,VWS V14.01,2013-11-12 18:46:00,
2013-11-12 12:51:00,27.9,8.3,30.69,SSW,206,5.8,7.2,43,0.00,,CLR,0.00,VWS V14.01,2013-11-12 18:51:00,
2013-11-12 12:56:00,27.9,8.3,30.69,West,277,5.8,7.2,43,0.00,,CLR,0.00,VWS V14.01,2013-11-12 18:56:00,
2013-11-12 13:00:00,28.2,8.6,30.66,WSW,255,8.3,8.3,43,0.00,,SCT300,0.00,VWS V14.01,2013-11-12 19:00:00,
2013-11-12 13:01:00,27.9,8.3,30.69,WSW,246,4.0,4.0,43,0.00,,CLR,0.00,VWS V14.01,2013-11-12 19:01:00,
2013-11-12 13:06:00,27.5,7.9,30.69,SW,233,3.1,9.2,43,0.00,,CLR,0.00,VWS V14.01,2013-11-12 19:06:00,
2013-11-12 13:11:00,27.7,8.1,30.69,SW,222,3.6,9.2,43,0.00,,CLR,0.00,VWS V14.01,2013-11-12 19:11:00,
2013-11-12 13:15:00,28.2,8.6,30.66,SSW,201,4.0,8.3,43,0.00,,SCT300,0.00,VWS V14.01,2013-11-12 19:15:00,
2013-11-12 13:16:00,27.9,8.3,30.69,SSW,213,4.0,4.9,43,0.00,,CLR,0.00,VWS V14.01,2013-11-12 19:16:00,
2013-11-12 13:21:00,27.9,8.3,30.69,SW,235,3.6,6.3,43,0.00,,CLR,0.00,VWS V14.01,2013-11-12 19:21:00,
2013-11-12 13:26:00,27.9,8.3,30.69,WNW,288,5.4,6.3,43,0.00,,CLR,0.00,VWS V14.01,2013-11-12 19:26:00,
2013-11-12 13:30:00,27.7,7.6,30.66,SSW,211,5.4,8.1,42,0.00,,SCT300,0.00,VWS V14.01,2013-11-12 19:30:00,
2013-11-12 13:31:00,27.7,8.1,30.69,South,170,3.6,4.0,43,0.00,,CLR,0.00,VWS V14.01,2013-11-12 19:31:00,
2013-11-12 13:36:00,27.7,8.1,30.66,WSW,240,2.7,8.3,43,0.00,,CLR,0.00,VWS V14.01,2013-11-12 19:36:00,
2013-11-12 13:41:00,27.7,8.1,30.66,WSW,246,4.9,8.3,43,0.00,,CLR,0.00,VWS V14.01,2013-11-12 19:41:00,
2013-11-12 13:45:00,28.2,8.6,30.66,WSW,237,5.4,8.3,43,0.00,,SCT300,0.00,VWS V14.01,2013-11-12 19:45:00,
2013-11-12 13:46:00,27.7,8.1,30.66,SW,231,6.3,7.2,43,0.00,,CLR,0.00,VWS V14.01,2013-11-12 19:46:00,
2013-11-12 13:51:00,27.9,8.3,30.66,SSW,198,4.0,8.3,43,0.00,,CLR,0.00,VWS V14.01,2013-11-12 19:51:00,
2013-11-12 13:56:00,28.0,8.4,30.66,SSW,209,3.1,8.3,43,0.00,,CLR,0.00,VWS V14.01,2013-11-12 19:56:00,
2013-11-12 14:00:00,28.2,8.6,30.63,SSW,196,5.8,11.0,43,0.00,,SCT300,0.00,VWS V14.01,2013-11-12 20:00:00,
2013-11-12 14:01:00,28.2,8.6,30.66,SW,225,5.4,8.3,43,0.00,,CLR,0.00,VWS V14.01,2013-11-12 20:01:00,
2013-11-12 14:06:00,28.0,8.4,30.66,WNW,289,4.9,8.3,43,0.00,,CLR,0.00,VWS V14.01,2013-11-12 20:06:00,
2013-11-12 14:11:00,28.0,8.4,30.66,SSW,202,3.6,8.3,43,0.00,,CLR,0.00,VWS V14.01,2013-11-12 20:11:00,
2013-11-12 14:15:00,28.4,8.8,30.63,SW,229,4.0,8.1,43,0.00,,SCT300,0.00,VWS V14.01,2013-11-12 20:15:00,
2013-11-12 14:16:00,28.2,8.6,30.66,SW,222,5.8,6.3,43,0.00,,CLR,0.00,VWS V14.01,2013-11-12 20:16:00,
2013-11-12 14:21:00,27.9,7.8,30.66,SW,226,4.9,7.2,42,0.00,,CLR,0.00,VWS V14.01,2013-11-12 20:21:00,
2013-11-12 14:26:00,27.7,7.6,30.66,West,275,3.1,8.1,42,0.00,,CLR,0.00,VWS V14.01,2013-11-12 20:26:00,
2013-11-12 14:30:00,27.9,7.8,30.63,WSW,257,5.8,9.6,42,0.00,,SCT300,0.00,VWS V14.01,2013-11-12 20:30:00,
2013-11-12 14:31:00,27.7,8.1,30.66,WSW,237,3.6,5.8,43,0.00,,CLR,0.00,VWS V14.01,2013-11-12 20:31:00,
2013-11-12 14:36:00,27.9,8.3,30.66,South,183,5.4,8.3,43,0.00,,CLR,0.00,VWS V14.01,2013-11-12 20:36:00,
2013-11-12 14:41:00,28.2,8.6,30.66,WSW,246,3.1,8.3,43,0.00,,CLR,0.00,VWS V14.01,2013-11-12 20:41:00,
2013-11-12 14:45:00,27.9,7.8,30.63,SW,216,4.9,8.7,42,0.00,,SCT300,0.00,VWS V14.01,2013-11-12 20:45:00,
2013-11-12 14:46:00,28.2,8.6,30.66,SSW,208,6.3,6.3,43,0.00,,CLR,0.00,VWS V14.01,2013-11-12 20:46:00,
2013-11-12 14:51:00,28.0,8.4,30.63,South,188,4.0,6.3,43,0.00,,CLR,0.00,VWS V14.01,2013-11-12 20:51:00,
2013-11-12 14:56:00,28.2,8.6,30.63,SW,221,7.6,8.3,43,0.00,,CLR,0.00,VWS V14.01,2013-11-12 20:56:00,
2013-11-12 15:00:00,27.9,8.3,30.63,WSW,256,6.3,8.7,43,0.00,,SCT300,0.00,VWS V14.01,2013-11-12 21:00:00,
2013-11-12 15:01:00,28.2,8.6,30.63,SW,226,8.1,8.1,43,0.00,,CLR,0.00,VWS V14.01,2013-11-12 21:01:00,
2013-11-12 15:06:00,28.2,8.6,30.63,SW,230,5.8,8.1,43,0.00,,CLR,0.00,VWS V14.01,2013-11-12 21:06:00,
2013-11-12 15:11:00,28.4,8.8,30.63,South,179,4.9,8.1,43,0.00,,CLR,0.00,VWS V14.01,2013-11-12 21:11:00,
2013-11-12 15:15:00,27.5,7.9,30.63,SSW,205,4.9,8.3,43,0.00,,SCT300,0.00,VWS V14.01,2013-11-12 21:15:00,
2013-11-12 15:16:00,28.4,8.8,30.63,SW,221,2.2,6.7,43,0.00,,CLR,0.00,VWS V14.01,2013-11-12 21:16:00,
2013-11-12 15:21:00,28.2,8.6,30.63,South,179,4.0,6.7,43,0.00,,CLR,0.00,VWS V14.01,2013-11-12 21:21:00,
2013-11-12 15:26:00,28.0,7.9,30.63,WSW,244,7.6,8.7,42,0.00,,CLR,0.00,VWS V14.01,2013-11-12 21:26:00,
2013-11-12 15:30:00,27.3,7.8,30.63,SW,216,5.4,9.6,43,0.00,,SCT300,0.00,VWS V14.01,2013-11-12 21:30:00,
2013-11-12 15:31:00,27.9,7.8,30.63,WNW,302,4.9,6.7,42,0.00,,CLR,0.00,VWS V14.01,2013-11-12 21:31:00,
2013-11-12 15:36:00,27.9,7.8,30.63,SW,215,2.7,8.7,42,0.00,,CLR,0.00,VWS V14.01,2013-11-12 21:36:00,
2013-11-12 15:41:00,27.9,8.3,30.63,South,181,7.6,8.7,43,0.00,,CLR,0.00,VWS V14.01,2013-11-12 21:41:00,
2013-11-12 15:45:00,27.0,7.5,30.63,SW,234,3.6,6.7,43,0.00,,SCT300,0.00,VWS V14.01,2013-11-12 21:45:00,
2013-11-12 15:46:00,27.9,8.3,30.63,SW,231,5.8,6.3,43,0.00,,CLR,0.00,VWS V14.01,2013-11-12 21:46:00,
2013-11-12 15:51:00,27.9,8.3,30.63,SW,230,4.0,6.7,43,0.00,,CLR,0.00,VWS V14.01,2013-11-12 21:51:00,
2013-11-12 15:56:00,27.9,8.3,30.63,West,280,7.6,8.3,43,0.00,,CLR,0.00,VWS V14.01,2013-11-12 21:56:00,
2013-11-12 16:00:00,26.6,7.6,30.63,WSW,237,3.1,6.3,44,0.00,,SCT300,0.00,VWS V14.01,2013-11-12 22:00:00,
2013-11-12 16:01:00,27.9,8.3,30.63,WSW,238,3.6,7.6,43,0.00,,FEW250,0.00,VWS V14.01,2013-11-12 22:01:00,
2013-11-12 16:06:00,27.7,8.1,30.63,WSW,257,3.6,8.3,43,0.00,,FEW250,0.00,VWS V14.01,2013-11-12 22:06:00,
2013-11-12 16:11:00,27.5,7.9,30.63,SW,230,5.4,8.3,43,0.00,,FEW250,0.00,VWS V14.01,2013-11-12 22:11:00,
2013-11-12 16:15:00,26.1,7.2,30.60,SW,217,2.2,5.4,44,0.00,,SCT300,0.00,VWS V14.01,2013-11-12 22:15:00,
2013-11-12 16:16:00,27.5,7.9,30.63,SW,219,4.0,5.8,43,0.00,,FEW250,0.00,VWS V14.01,2013-11-12 22:16:00,
2013-11-12 16:21:00,27.5,7.9,30.63,SW,223,6.3,7.2,43,0.00,,FEW250,0.00,VWS V14.01,2013-11-12 22:21:00,
2013-11-12 16:26:00,27.3,7.8,30.63,SSW,206,2.7,9.6,43,0.00,,FEW250,0.00,VWS V14.01,2013-11-12 22:26:00,
2013-11-12 16:30:00,25.7,6.8,30.60,SSW,202,3.6,8.1,44,0.00,,SCT300,0.00,VWS V14.01,2013-11-12 22:30:00,
2013-11-12 16:31:00,27.3,7.8,30.63,SW,220,3.6,6.7,43,0.00,,FEW250,0.00,VWS V14.01,2013-11-12 22:31:00,
2013-11-12 16:36:00,27.1,7.6,30.63,West,260,5.4,6.7,43,0.00,,FEW250,0.00,VWS V14.01,2013-11-12 22:36:00,
2013-11-12 16:41:00,27.0,7.5,30.63,WSW,237,3.6,6.7,43,0.00,,FEW250,0.00,VWS V14.01,2013-11-12 22:41:00,
2013-11-12 16:45:00,25.3,7.0,30.60,SSW,210,3.1,5.8,45,0.00,,SCT300,0.00,VWS V14.01,2013-11-12 22:45:00,
2013-11-12 16:46:00,27.0,7.5,30.63,WSW,243,2.7,3.6,43,0.00,,FEW250,0.00,VWS V14.01,2013-11-12 22:46:00,
2013-11-12 16:51:00,26.8,7.3,30.63,SSW,206,4.9,6.3,43,0.00,,FEW250,0.00,VWS V14.01,2013-11-12 22:51:00,
2013-11-12 16:56:00,26.6,7.6,30.63,SSW,205,2.7,6.3,44,0.00,,FEW250,0.00,VWS V14.01,2013-11-12 22:56:00,
2013-11-12 17:00:00,25.2,7.3,30.60,SSW,211,3.6,8.7,46,0.00,,SCT300,0.00,VWS V14.01,2013-11-12 23:00:00,
2013-11-12 17:01:00,26.4,7.5,30.63,SW,219,3.6,3.6,44,0.00,,SCT300,0.00,VWS V14.01,2013-11-12 23:01:00,
2013-11-12 17:06:00,26.4,7.5,30.60,WSW,246,4.0,4.0,44,0.00,,SCT300,0.00,VWS V14.01,2013-11-12 23:06:00,
2013-11-12 17:11:00,26.1,7.2,30.60,WSW,237,3.6,5.4,44,0.00,,SCT300,0.00,VWS V14.01,2013-11-12 23:11:00,
2013-11-12 17:15:00,26.1,7.2,30.60,SW,217,2.2,5.4,44,0.00,,OVC022,0.00,VWS V14.01,2013-11-12 23:15:00,
2013-11-12 17:16:00,26.1,7.2,30.60,SW,220,4.0,5.8,44,0.00,,SCT300,0.00,VWS V14.01,2013-11-12 23:16:00,
2013-11-12 17:21:00,25.9,7.0,30.60,SW,217,4.0,5.8,44,0.00,,SCT300,0.00,VWS V14.01,2013-11-12 23:21:00,
2013-11-12 17:26:00,25.7,6.8,30.60,West,272,4.0,8.1,44,0.00,,SCT300,0.00,VWS V14.01,2013-11-12 23:26:00,
2013-11-12 17:30:00,24.8,8.4,30.60,SSW,204,5.4,8.3,49,0.00,,SCT300,0.00,VWS V14.01,2013-11-12 23:30:00,
2013-11-12 17:31:00,25.7,6.8,30.60,SSW,196,3.6,4.0,44,0.00,,SCT300,0.00,VWS V14.01,2013-11-12 23:31:00,
2013-11-12 17:36:00,25.5,6.7,30.60,SW,224,4.9,5.4,44,0.00,,SCT300,0.00,VWS V14.01,2013-11-12 23:36:00,
2013-11-12 17:41:00,25.3,7.0,30.60,SSW,207,5.4,5.8,45,0.00,,SCT300,0.00,VWS V14.01,2013-11-12 23:41:00,
2013-11-12 17:45:00,24.4,8.5,30.60,SSW,211,4.0,8.3,50,0.00,,SCT300,0.00,VWS V14.01,2013-11-12 23:45:00,
2013-11-12 17:46:00,25.3,7.0,30.60,SW,221,2.7,4.0,45,0.00,,SCT300,0.00,VWS V14.01,2013-11-12 23:46:00,
2013-11-12 17:51:00,25.3,7.0,30.60,SW,228,4.0,6.3,45,0.00,,SCT300,0.00,VWS V14.01,2013-11-12 23:51:00,
2013-11-12 17:56:00,25.2,6.8,30.60,SW,221,5.8,8.7,45,0.00,,SCT300,0.00,VWS V14.01,2013-11-12 23:56:00,
2013-11-12 18:00:00,24.1,8.6,30.57,SSW,205,3.1,6.3,51,0.00,,SCT300,0.00,VWS V14.01,2013-11-13 00:00:00,
2013-11-12 18:01:00,25.2,7.3,30.60,SW,221,4.0,4.0,46,0.00,,BKN300,0.00,VWS V14.01,2013-11-13 00:01:00,
2013-11-12 18:06:00,25.2,7.3,30.60,SSW,207,6.3,8.1,46,0.00,,BKN300,0.00,VWS V14.01,2013-11-13 00:06:00,
2013-11-12 18:11:00,25.0,7.1,30.60,WSW,244,4.0,8.1,46,0.00,,BKN300,0.00,VWS V14.01,2013-11-13 00:11:00,
2013-11-12 18:15:00,25.0,7.6,30.60,SSW,211,5.4,8.3,47,0.00,,OVC022,0.00,VWS V14.01,2013-11-13 00:15:00,
2013-11-12 18:16:00,25.0,7.6,30.60,SW,221,4.0,5.8,47,0.00,,BKN300,0.00,VWS V14.01,2013-11-13 00:16:00,
2013-11-12 18:21:00,24.8,7.9,30.60,SW,220,5.4,8.3,48,0.00,,BKN300,0.00,VWS V14.01,2013-11-13 00:21:00,
2013-11-12 18:26:00,24.8,7.9,30.60,West,271,3.1,8.3,48,0.00,,BKN300,0.00,VWS V14.01,2013-11-13 00:26:00,
2013-11-12 18:30:00,24.8,8.4,30.60,SSW,204,5.4,8.3,49,0.00,,OVC022,0.00,VWS V14.01,2013-11-13 00:30:00,
2013-11-12 18:31:00,24.8,8.4,30.60,SW,233,8.1,8.1,49,0.00,,BKN300,0.00,VWS V14.01,2013-11-13 00:31:00,
2013-11-12 18:36:00,24.6,8.2,30.60,SSW,212,5.4,8.3,49,0.00,,BKN300,0.00,VWS V14.01,2013-11-13 00:36:00,
2013-11-12 18:41:00,24.4,8.0,30.60,SSW,209,2.7,8.3,49,0.00,,BKN300,0.00,VWS V14.01,2013-11-13 00:41:00,
2013-11-12 18:45:00,24.4,8.5,30.60,SSW,211,4.0,8.3,50,0.00,,OVC022,0.00,VWS V14.01,2013-11-13 00:45:00,
2013-11-12 18:46:00,24.4,8.5,30.60,SSW,203,4.9,5.8,50,0.00,,BKN300,0.00,VWS V14.01,2013-11-13 00:46:00,
2013-11-12 18:51:00,24.3,8.3,30.57,SW,229,5.4,5.8,50,0.00,,BKN300,0.00,VWS V14.01,2013-11-13 00:51:00,
2013-11-12 18:56:00,24.1,8.6,30.57,SW,214,4.0,6.3,51,0.00,,BKN300,0.00,VWS V14.01,2013-11-13 00:56:00,
2013-11-12 19:00:00,24.1,8.6,30.57,SSW,205,3.1,6.3,51,0.00,,OVC022,0.00,VWS V14.01,2013-11-13 01:00:00,
2013-11-12 19:01:00,24.1,8.6,30.57,SSW,213,3.1,4.5,51,0.00,,SCT300,0.00,VWS V14.01,2013-11-13 01:01:00,
2013-11-12 19:06:00,23.9,8.9,30.57,SSW,208,4.9,6.3,52,0.00,,SCT300,0.00,VWS V14.01,2013-11-13 01:06:00,
2013-11-12 19:11:00,23.7,8.7,30.57,West,264,5.4,8.3,52,0.00,,SCT300,0.00,VWS V14.01,2013-11-13 01:11:00,
2013-11-12 19:15:00,22.8,8.3,30.54,SSW,203,3.6,8.3,53,0.00,,SCT300,0.00,VWS V14.01,2013-11-13 01:15:00,
2013-11-12 19:16:00,23.7,8.7,30.57,WSW,237,4.0,4.0,52,0.00,,SCT300,0.00,VWS V14.01,2013-11-13 01:16:00,
2013-11-12 19:21:00,23.5,8.5,30.57,SSW,208,4.9,5.8,52,0.00,,SCT300,0.00,VWS V14.01,2013-11-13 01:21:00,
2013-11-12 19:26:00,23.5,8.5,30.57,SSW,210,5.4,5.8,52,0.00,,SCT300,0.00,VWS V14.01,2013-11-13 01:26:00,
2013-11-12 19:30:00,22.6,8.5,30.54,SSW,206,3.1,6.3,54,0.00,,SCT300,0.00,VWS V14.01,2013-11-13 01:30:00,
2013-11-12 19:31:00,23.5,8.5,30.57,South,189,3.6,8.1,52,0.00,,SCT300,0.00,VWS V14.01,2013-11-13 01:31:00,
2013-11-12 19:36:00,23.4,8.4,30.54,WSW,251,3.1,8.1,52,0.00,,SCT300,0.00,VWS V14.01,2013-11-13 01:36:00,
2013-11-12 19:41:00,23.4,8.4,30.54,SSW,204,5.4,8.1,52,0.00,,SCT300,0.00,VWS V14.01,2013-11-13 01:41:00,
2013-11-12 19:45:00,22.5,8.3,30.51,SSW,213,3.6,6.3,54,0.00,,SCT300,0.00,VWS V14.01,2013-11-13 01:45:00,
2013-11-12 19:46:00,23.2,8.2,30.54,SW,229,3.6,8.7,52,0.00,,SCT300,0.00,VWS V14.01,2013-11-13 01:46:00,
2013-11-12 19:51:00,23.0,8.4,30.54,SW,226,3.1,8.7,53,0.00,,SCT300,0.00,VWS V14.01,2013-11-13 01:51:00,
2013-11-12 19:55:00,23.0,8.4,30.54,SW,217,3.6,8.7,53,0.00,,SCT300,0.00,VWS V14.01,2013-11-13 01:55:00,
2013-11-12 20:00:00,23.0,8.4,30.54,SW,215,6.3,8.3,53,0.00,,CLR,0.00,VWS V14.01,2013-11-13 02:00:00,
2013-11-12 20:05:00,22.8,8.3,30.54,WSW,237,5.4,8.3,53,0.00,,CLR,0.00,VWS V14.01,2013-11-13 02:05:00,
2013-11-12 20:10:00,22.8,8.3,30.54,SSW,206,4.0,8.3,53,0.00,,CLR,0.00,VWS V14.01,2013-11-13 02:10:00,
2013-11-12 20:15:00,22.8,8.3,30.54,SW,214,5.4,5.8,53,0.00,,CLR,0.00,VWS V14.01,2013-11-13 02:15:00,
2013-11-12 20:20:00,22.6,8.5,30.54,SSW,204,4.9,6.3,54,0.00,,CLR,0.00,VWS V14.01,2013-11-13 02:20:00,
2013-11-12 20:25:00,22.6,8.5,30.54,SSW,210,3.6,6.3,54,0.00,,CLR,0.00,VWS V14.01,2013-11-13 02:25:00,
2013-11-12 20:30:00,22.6,8.5,30.54,SSW,198,3.6,6.3,54,0.00,,CLR,0.00,VWS V14.01,2013-11-13 02:30:00,
2013-11-12 20:35:00,22.6,8.5,30.51,SSW,203,4.0,6.3,54,0.00,,CLR,0.00,VWS V14.01,2013-11-13 02:35:00,
2013-11-12 20:40:00,22.5,8.3,30.51,South,184,5.4,6.3,54,0.00,,CLR,0.00,VWS V14.01,2013-11-13 02:40:00,
2013-11-12 20:45:00,22.5,8.3,30.51,SSW,209,4.0,4.0,54,0.00,,CLR,0.00,VWS V14.01,2013-11-13 02:45:00,
2013-11-12 20:50:00,22.5,8.3,30.51,WSW,251,4.9,5.4,54,0.00,,CLR,0.00,VWS V14.01,2013-11-13 02:50:00,
2013-11-12 20:55:00,22.5,8.8,30.51,SSW,206,4.0,6.3,55,0.00,,CLR,0.00,VWS V14.01,2013-11-13 02:55:00,
2013-11-12 21:00:00,22.3,8.6,30.51,SSW,202,4.0,5.4,55,0.00,,CLR,0.00,VWS V14.01,2013-11-13 03:00:00,
2013-11-12 21:05:00,22.3,8.6,30.51,SW,214,3.6,5.4,55,0.00,,CLR,0.00,VWS V14.01,2013-11-13 03:05:00,
2013-11-12 21:10:00,22.3,8.6,30.51,SSW,207,2.7,5.4,55,0.00,,CLR,0.00,VWS V14.01,2013-11-13 03:10:00,
2013-11-12 21:15:00,22.1,8.8,30.51,SW,221,0.0,5.4,56,0.00,,CLR,0.00,VWS V14.01,2013-11-13 03:15:00,
2013-11-12 21:20:00,22.1,8.8,30.51,SSW,208,3.1,5.4,56,0.00,,CLR,0.00,VWS V14.01,2013-11-13 03:20:00,
2013-11-12 21:25:00,22.1,8.8,30.51,SSW,205,4.0,5.4,56,0.00,,CLR,0.00,VWS V14.01,2013-11-13 03:25:00,
2013-11-12 21:30:00,21.9,8.6,30.51,SSW,200,2.7,3.6,56,0.00,,CLR,0.00,VWS V14.01,2013-11-13 03:30:00,
2013-11-12 21:35:00,21.9,8.6,30.51,SSW,204,3.6,4.0,56,0.00,,CLR,0.00,VWS V14.01,2013-11-13 03:35:00,
2013-11-12 21:40:00,21.9,8.6,30.51,SSW,210,2.7,4.0,56,0.00,,CLR,0.00,VWS V14.01,2013-11-13 03:40:00,
2013-11-12 21:45:00,21.9,9.0,30.51,SSE,168,0.0,0.0,57,0.00,,CLR,0.00,VWS V14.01,2013-11-13 03:45:00,
2013-11-12 21:50:00,21.9,9.0,30.51,SSW,200,0.0,0.0,57,0.00,,CLR,0.00,VWS V14.01,2013-11-13 03:50:00,
2013-11-12 21:55:00,21.9,9.0,30.51,SSW,194,2.7,4.0,57,0.00,,CLR,0.00,VWS V14.01,2013-11-13 03:55:00,
2013-11-12 22:00:00,21.9,9.0,30.51,SSW,194,0.0,0.0,57,0.00,,CLR,0.00,VWS V14.01,2013-11-13 04:00:00,
2013-11-12 22:05:00,21.7,8.9,30.51,SSE,156,3.6,3.6,57,0.00,,CLR,0.00,VWS V14.01,2013-11-13 04:05:00,
2013-11-12 22:10:00,21.7,8.9,30.51,South,182,2.7,3.6,57,0.00,,CLR,0.00,VWS V14.01,2013-11-13 04:10:00,
2013-11-12 22:15:00,21.7,8.9,30.51,SSE,164,2.7,2.7,57,0.00,,CLR,0.00,VWS V14.01,2013-11-13 04:15:00,
2013-11-12 22:20:00,21.7,8.9,30.51,SSE,163,0.0,3.1,57,0.00,,CLR,0.00,VWS V14.01,2013-11-13 04:20:00,
2013-11-12 22:25:00,21.6,8.7,30.51,SSE,163,2.2,4.0,57,0.00,,CLR,0.00,VWS V14.01,2013-11-13 04:25:00,
2013-11-12 22:30:00,21.6,8.7,30.51,South,171,0.0,0.0,57,0.00,,CLR,0.00,VWS V14.01,2013-11-13 04:30:00,
2013-11-12 22:35:00,21.6,9.1,30.48,South,172,0.0,0.0,58,0.00,,CLR,0.00,VWS V14.01,2013-11-13 04:35:00,
2013-11-12 22:40:00,21.6,9.1,30.48,South,172,0.0,0.0,58,0.00,,CLR,0.00,VWS V14.01,2013-11-13 04:40:00,
2013-11-12 22:45:00,21.6,9.5,30.48,SSW,198,0.0,0.0,59,0.00,,CLR,0.00,VWS V14.01,2013-11-13 04:45:00,
2013-11-12 22:50:00,21.6,9.5,30.48,SSW,199,2.2,4.0,59,0.00,,CLR,0.00,VWS V14.01,2013-11-13 04:50:00,
2013-11-12 22:55:00,21.6,9.5,30.48,SSW,204,0.0,4.0,59,0.00,,CLR,0.00,VWS V14.01,2013-11-13 04:55:00,
2013-11-12 23:00:00,21.6,9.5,30.48,SSW,196,0.0,3.1,59,0.00,,CLR,0.00,VWS V14.01,2013-11-13 05:00:00,
2013-11-12 23:01:00,21.6,9.5,30.48,SSW,197,2.7,3.1,59,0.00,,CLR,0.00,VWS V14.01,2013-11-13 05:01:00,
2013-11-12 23:06:00,21.7,10.0,30.48,SSW,206,2.7,4.0,60,0.00,,CLR,0.00,VWS V14.01,2013-11-13 05:06:00,
2013-11-12 23:11:00,21.7,10.0,30.48,SSW,203,0.0,4.0,60,0.00,,CLR,0.00,VWS V14.01,2013-11-13 05:11:00,
2013-11-12 23:15:00,22.3,10.9,30.45,SSW,205,3.1,5.8,61,0.00,,SCT300,0.00,VWS V14.01,2013-11-13 05:15:00,
2013-11-12 23:16:00,21.7,10.0,30.48,SSW,202,0.0,0.0,60,0.00,,CLR,0.00,VWS V14.01,2013-11-13 05:16:00,
2013-11-12 23:21:00,21.7,10.4,30.48,SSE,159,0.0,0.0,61,0.00,,CLR,0.00,VWS V14.01,2013-11-13 05:21:00,
2013-11-12 23:26:00,21.7,10.4,30.48,South,191,3.1,4.9,61,0.00,,CLR,0.00,VWS V14.01,2013-11-13 05:26:00,
2013-11-12 23:30:00,22.5,10.7,30.42,SW,218,3.1,6.3,60,0.00,,SCT300,0.00,VWS V14.01,2013-11-13 05:30:00,
2013-11-12 23:31:00,21.7,10.4,30.48,South,187,4.0,4.0,61,0.00,,CLR,0.00,VWS V14.01,2013-11-13 05:31:00,
2013-11-12 23:36:00,21.9,10.9,30.45,SSW,199,4.0,5.8,62,0.00,,CLR,0.00,VWS V14.01,2013-11-13 05:36:00,
2013-11-12 23:41:00,21.9,10.9,30.45,SSW,193,2.7,5.8,62,0.00,,CLR,0.00,VWS V14.01,2013-11-13 05:41:00,
2013-11-12 23:45:00,22.6,10.5,30.42,SSW,211,4.0,5.8,59,0.00,,SCT300,0.00,VWS V14.01,2013-11-13 05:45:00,
2013-11-12 23:46:00,22.1,11.1,30.45,SSW,210,3.1,4.0,62,0.00,,CLR,0.00,VWS V14.01,2013-11-13 05:46:00,
2013-11-12 23:51:00,22.1,11.1,30.45,SSW,195,4.9,6.3,62,0.00,,CLR,0.00,VWS V14.01,2013-11-13 05:51:00,
2013-11-12 23:56:00,22.3,11.2,30.45,SSW,205,4.0,6.3,62,0.00,,CLR,0.00,VWS V14.01,2013-11-13 05:56:00,